Dewpoint
28 27 27 26 25 28 28 29 25 22 25 27 32 33 34 29 26 25 24 23 24 24 25 25 25 25 25 25 24 23 22 22 21 21 22 22 22 22 22 23 24 24 24 25
26 29 30 28 28 28 28 29 29 29 30 33 33 35 28 27 26 24 24 23 24 24 24 25 25 25 25 26 24 22 21 20 20 20 20 20 20 21 21 21 22 21 22 22
23 25 28 25 26 27 27 28 28 26 29 31 30 29 28 27 25 24 24 23 24 24 26 26 27 26 25 25 22 22 21 20 20 21 20 21 20 20 20 21 21 21 21 21
23 25 18 19 26 27 27 28 27 27 30 30 30 29 28 27 25 24 23 24 25 26 25 26 28 28 28 24 22 21 21 20 20 20 20 20 20 20 20 20 20 20 20 21
22 21 22 20 24 24 24 22 27 27 29 28 28 27 26 26 25 24 24 26 26 26 25 27 27 27 26 25 21 20 21 20 20 19 19 19 20 20 19 19 18 19 19 19
24 19 14 17 25 26 23 19 26 29 28 26 27 25 24 25 25 25 25 25 24 25 25 25 25 25 24 23 22 21 21 21 20 18 19 19 20 20 20 17 17 16 16 17
22 20 20 22 26 22 18 16 27 29 28 27 27 26 26 25 24 25 24 24 24 24 23 23 23 23 23 22 23 23 22 22 20 19 17 18 18 19 19 16 15 15 14 16
23 20 16 26 24 19 23 26 29 28 27 26 24 24 23 23 24 23 23 24 23 23 23 23 22 21 22 22 23 23 23 22 21 18 17 17 17 17 17 15 14 14 13 14
22 21 25 28 27 27 27 26 27 27 26 25 24 22 23 23 22 22 22 23 22 21 20 20 20 20 20 21 21 21 21 21 19 18 18 16 15 15 14 14 13 11 12 12
21 23 24 27 27 26 26 25 25 26 26 25 23 23 23 22 21 21 21 20 20 19 18 19 19 20 20 19 18 17 16 16 17 15 14 15 13 12 12 12 12 11 11 12
22 25 26 27 27 26 24 25 26 26 26 24 23 22 21 20 20 19 20 19 18 17 17 17 17 18 19 18 15 15 15 15 15 14 13 12 14 13 12 13 12 12 12 11
20 23 23 25 28 25 24 24 24 23 22 22 22 21 20 19 19 18 19 18 17 16 16 16 15 16 17 17 15 14 14 14 14 13 13 11 9 10 13 12 12 10 10 10
25 28 27 28 26 24 23 22 22 22 21 21 20 20 19 18 17 17 16 16 15 15 15 14 14 14 16 16 14 14 13 13 14 12 11 10 9 8 7 8 10 10 8 8
27 26 25 26 25 24 22 22 22 21 20 20 19 19 18 15 15 14 14 13 13 13 12 13 12 11 12 15 13 13 14 13 13 12 11 10 10 9 9 7 7 8 9 8
26 26 26 26 24 22 22 21 20 20 20 19 19 17 16 11 9 12 13 12 12 12 12 13 11 11 11 12 12 13 12 12 12 11 11 10 10 10 9 8 8 8 8 8
26 26 25 24 23 22 21 21 20 20 19 19 18 16 12 8 8 10 11 11 12 12 12 12 12 11 12 13 12 12 11 11 11 11 11 11 10 9 8 7 7 7 7 7
24 24 24 23 23 22 22 21 20 20 19 19 17 14 10 8 8 9 11 12 11 11 11 12 12 10 12 14 12 12 13 12 11 9 9 9 8 6 5 5 4 4 5 5
26 25 25 24 23 23 22 21 21 20 20 19 15 13 11 10 10 9 8 9 9 9 10 11 11 11 12 13 14 13 11 9 9 7 6 5 4 3 3 2 1 2 3 3
26 26 25 24 24 23 22 22 22 21 18 16 14 12 11 10 9 8 7 9 10 10 10 12 15 14 13 13 11 10 9 7 6 5 4 2 2 0 1 0 -0 -0 0 0
26 26 25 25 24 23 23 23 21 19 18 17 14 10 9 8 8 7 7 9 10 11 12 15 15 14 13 11 9 7 7 7 4 3 2 1 0 -1 -2 -4 -4 -3 -2 -2
25 24 23 23 24 24 23 22 19 17 16 15 13 10 9 8 8 7 6 5 7 9 10 12 13 11 9 7 6 7 6 4 3 2 1 -1 -2 -3 -4 -4 -5 -4 -4 -4
22 22 22 22 22 21 21 21 19 17 16 16 13 9 7 8 7 9 9 7 8 9 11 13 12 10 8 6 5 5 3 2 1 0 -1 -3 -4 -5 -6 -7 -7 -6 -6 -6
21 22 22 21 21 20 20 19 18 17 16 15 13 9 8 8 9 9 8 9 9 11 12 12 9 7 5 6 5 3 1 0 -1 -2 -4 -5 -6 -7 -8 -8 -8 -8 -8 -9
21 21 21 21 20 19 18 18 18 18 17 16 15 13 11 10 11 11 12 11 10 12 12 8 6 3 4 4 2 1 0 -1 -3 -4 -6 -9 -8 -9 -10 -10 -10 -10 -10 -11
21 21 20 20 20 19 18 18 17 16 16 16 15 12 12 13 14 15 14 13 12 11 9 5 3 2 3 2 2 -0 -1 -2 -4 -5 -6 -7 -9 -11 -11 -11 -12 -12 -12 -12
21 21 21 21 21 19 18 17 16 16 16 15 15 14 15 16 15 13 13 12 11 9 7 4 4 3 2 1 -0 -2 -3 -5 -6 -7 -8 -9 -11 -12 -13 -13 -13 -13 -14 -14
22 21 21 20 20 19 18 18 17 16 16 16 14 15 15 15 14 13 12 11 10 7 5 4 3 2 1 -0 -2 -3 -4 -6 -7 -8 -9 -11 -13 -13 -14 -14 -14 -14 -14 -15
Wind_Speed
18 13 10 12 16 17 21 23 18 32 22 18 25 25 23 18 17 15 11 7 6 6 6 7 8 10 10 10 11 11 12 13 14 14 14 15 17 17 17 18 20 22 23 23
20 11 16 18 20 19 20 24 23 25 31 11 19 16 21 23 21 18 13 10 8 7 6 7 8 9 10 10 11 11 14 15 16 16 17 18 17 18 18 19 21 22 23 24
20 9 9 13 25 23 19 22 21 24 28 12 15 26 28 25 21 18 16 13 10 8 6 7 8 8 10 10 10 14 15 16 16 16 18 19 18 19 20 21 18 21 22 23
14 7 20 9 4 8 19 24 20 16 9 23 20 13 16 19 20 18 16 15 11 9 7 6 5 7 6 10 11 13 14 15 16 16 16 16 17 19 18 17 19 19 20 21
14 14 9 10 8 10 11 15 17 17 15 16 20 17 8 12 15 17 17 15 12 10 8 8 8 7 9 9 12 13 13 14 16 16 15 15 16 16 16 17 19 19 19 22
10 14 14 6 3 6 6 18 18 20 23 27 23 17 12 16 17 18 16 14 13 11 10 11 8 9 12 10 11 13 13 14 13 15 14 14 16 17 16 17 18 16 19 21
8 5 6 7 8 6 7 10 10 17 22 25 18 3 19 21 18 18 18 17 14 12 12 11 10 11 12 11 10 9 11 11 13 12 14 15 15 16 17 17 16 17 19 19
4 8 15 12 10 10 3 2 9 15 19 16 12 20 23 21 21 19 18 16 13 13 11 9 9 11 11 11 9 10 10 11 12 13 13 14 16 17 17 17 18 18 19 19
13 8 1 1 1 1 4 6 10 17 17 20 21 22 22 22 20 18 17 15 12 13 12 10 9 8 10 8 7 8 9 10 11 12 13 14 18 17 16 16 18 19 18 20
5 6 6 6 2 4 3 7 12 16 22 22 24 24 22 19 18 16 15 14 13 13 12 10 8 8 8 7 7 8 8 8 9 11 13 14 13 14 16 16 16 17 18 18
4 2 1 8 10 10 9 13 15 18 21 22 25 21 24 21 18 15 14 14 13 13 12 11 9 7 6 6 6 8 8 8 8 9 10 10 12 14 13 16 18 16 16 17
9 9 6 4 17 15 17 16 18 23 18 18 23 24 23 20 17 17 16 15 15 13 13 10 9 9 8 7 6 7 8 7 8 8 7 7 7 9 16 16 17 18 20 18
2 9 4 11 16 12 17 17 17 19 20 24 19 23 22 20 16 17 15 14 14 14 12 11 11 11 8 7 8 8 9 8 8 7 7 7 8 9 10 11 12 16 18 21
16 14 9 12 8 14 19 18 19 19 19 21 22 20 19 20 19 17 16 15 13 14 13 12 13 11 6 8 11 11 11 9 8 7 7 7 7 8 7 8 9 10 12 17
1 1 7 15 19 18 20 21 22 21 21 20 20 21 21 20 18 17 17 16 14 14 12 13 14 10 5 9 11 10 10 8 7 7 6 6 6 7 7 8 9 9 10 12
9 13 17 20 20 21 21 20 21 21 21 22 21 20 20 19 19 18 17 16 18 16 14 14 13 8 7 10 11 9 9 8 6 5 5 6 7 8 9 9 10 11 12 14
16 10 13 16 19 20 20 18 20 22 22 22 22 22 22 21 19 17 14 10 13 14 13 14 13 9 9 9 9 7 6 5 5 7 7 7 7 8 8 9 10 11 11 14
0 7 15 19 21 20 18 18 19 21 21 22 22 22 21 21 19 18 17 16 15 12 10 10 10 11 11 9 7 6 5 5 6 7 7 7 7 7 8 8 10 11 11 12
5 12 15 17 18 18 19 18 18 18 20 21 22 21 19 17 19 19 18 18 16 16 11 9 11 10 9 8 8 6 7 6 6 6 7 6 7 8 8 9 9 10 11 12
11 13 16 16 16 18 18 16 19 19 18 19 18 19 18 17 19 20 17 17 13 9 11 11 10 10 9 8 8 7 7 6 6 7 6 6 6 6 7 9 9 10 10 10
13 15 17 19 17 16 18 19 19 19 17 18 20 19 19 17 17 18 18 15 10 11 11 11 10 9 8 8 8 8 8 7 7 6 5 5 5 6 7 8 8 8 8 8
14 15 17 17 17 15 14 16 17 19 19 17 16 18 20 19 17 13 8 14 13 13 10 9 9 10 10 9 8 8 8 7 7 5 4 4 5 6 7 7 7 7 7 8
13 14 16 16 16 15 14 15 17 20 21 20 20 20 20 19 19 18 15 14 14 12 10 10 12 13 12 9 8 8 8 7 6 5 4 4 5 5 5 5 5 6 6 7
13 14 12 12 16 15 16 12 15 14 16 17 18 19 19 18 13 10 9 17 16 15 11 12 13 14 11 8 8 7 7 7 6 4 3 4 4 3 4 4 5 5 6 7
11 12 12 14 13 11 13 15 15 15 16 15 16 16 15 13 11 13 15 15 17 14 12 12 14 13 9 8 7 7 7 6 4 3 3 3 3 4 4 4 4 6 6 6
11 10 9 10 10 12 14 15 14 15 15 15 14 14 13 11 12 14 14 15 15 15 13 11 10 9 9 8 7 8 7 6 5 3 2 2 2 3 3 3 4 5 6 7
9 10 10 9 8 11 13 14 16 16 15 16 16 14 14 13 13 15 15 15 14 12 11 10 9 9 9 8 7 7 6 5 4 3 1 1 1 2 2 3 4 5 6 6
Wind_Direction
253 241 227 244 246 229 221 230 241 268 258 241 202 195 194 169 157 150 153 139 121 100 76 65 56 51 47 42 34 30 37 35 33 32 27 34 29 29 29 29 26 25 22 19
261 244 232 241 243 242 240 246 250 254 263 224 210 191 166 171 166 164 162 148 131 114 100 77 63 58 51 44 36 39 43 39 34 33 33 34 30 30 31 30 30 30 28 23
256 251 225 245 241 234 237 237 235 239 246 179 176 181 182 176 169 164 157 148 137 130 114 82 76 76 61 49 40 43 42 40 38 32 33 31 30 31 31 30 25 29 27 24
257 231 237 249 182 223 234 244 224 242 202 190 190 167 159 165 158 155 154 141 140 131 113 91 88 65 78 50 51 51 49 45 40 35 34 32 32 30 28 29 31 26 24 25
243 236 272 269 210 197 197 261 207 207 156 140 130 123 125 151 150 149 145 134 129 123 121 106 92 93 91 74 59 57 52 49 45 42 35 31 29 30 30 29 33 32 25 22
207 208 236 246 194 146 135 272 195 176 168 159 150 176 183 155 139 133 128 130 132 129 117 97 88 91 87 77 68 58 51 50 48 45 37 26 28 31 31 33 34 32 30 27
169 202 273 231 159 153 196 262 171 178 169 167 175 184 143 138 134 133 134 136 134 126 110 99 99 95 89 87 76 71 67 60 53 46 46 36 37 36 34 34 30 31 31 28
189 211 249 155 132 193 202 83 158 153 156 148 123 126 132 135 135 136 138 137 134 122 108 102 102 99 91 79 77 73 69 67 57 50 46 40 39 39 38 33 33 33 30 29
194 215 241 190 94 91 159 159 160 151 146 140 137 139 138 136 139 140 138 137 132 123 113 98 92 98 95 80 85 80 73 63 65 58 48 45 44 40 40 38 37 33 32 30
161 206 213 223 184 150 181 149 153 151 148 147 142 143 140 141 142 139 137 135 133 129 118 107 97 89 84 82 90 89 81 74 66 60 55 50 50 47 43 40 40 39 34 33
241 240 210 242 210 172 132 131 132 144 152 150 144 146 145 143 142 138 133 133 133 126 121 110 103 91 76 76 103 97 88 77 71 66 59 64 56 46 52 45 42 37 40 34
216 202 199 216 172 154 145 144 144 141 141 149 148 143 143 140 142 141 138 136 129 124 121 113 104 88 73 78 93 103 92 79 69 66 57 58 56 66 48 45 39 45 39 49
223 129 82 125 135 146 140 142 143 142 146 144 144 140 140 138 138 135 132 130 132 131 123 115 105 91 61 71 90 92 93 85 80 73 67 62 59 56 57 48 42 39 44 40
117 107 97 146 157 141 135 135 132 130 135 137 138 137 137 135 136 137 138 135 130 129 126 120 110 96 77 94 98 95 91 84 89 85 79 73 69 67 61 48 30 29 32 37
1 323 157 136 134 134 133 135 135 136 137 137 141 140 141 142 144 142 139 137 134 130 126 123 119 113 124 117 106 102 100 96 94 89 79 72 58 51 41 35 25 19 17 20
97 112 130 141 143 145 146 148 145 149 149 147 146 147 145 142 140 141 144 147 147 149 144 136 130 137 140 123 114 107 101 99 95 84 63 49 38 33 28 23 18 15 17 10
115 129 144 152 157 159 160 158 156 156 153 152 149 145 142 141 140 141 142 145 140 141 142 139 142 153 144 129 120 121 116 102 81 67 56 44 38 31 28 27 22 20 20 19
132 182 177 165 162 160 157 156 156 156 155 149 141 139 141 149 150 147 144 137 133 132 139 140 145 137 128 128 125 122 109 91 75 66 58 46 41 37 31 30 26 19 12 13
106 138 144 152 155 152 151 150 149 141 136 139 142 149 149 145 146 146 144 143 146 147 164 162 146 132 125 123 118 109 101 92 81 74 68 58 46 37 35 32 26 19 10 10
117 124 132 137 142 144 139 137 134 136 141 141 135 140 144 144 147 148 151 154 161 161 157 150 136 126 120 112 107 103 99 97 96 80 65 60 49 43 39 36 26 17 11 9
137 137 137 137 135 132 137 140 138 141 142 144 149 154 153 150 150 150 148 152 160 155 150 145 137 128 121 117 104 103 100 98 90 82 72 63 54 44 37 29 24 17 11 8
146 146 143 139 139 137 141 143 140 139 143 142 139 141 145 152 154 155 158 159 158 156 146 140 135 130 127 119 114 113 107 101 98 94 81 65 51 41 34 29 20 6 0 2
153 152 148 148 150 145 138 144 148 149 151 153 155 158 163 164 165 163 165 163 158 159 146 139 136 132 126 115 119 113 108 104 96 89 85 70 56 40 28 23 6 352 350 352
150 149 145 135 133 141 150 153 150 153 151 150 153 157 154 154 165 173 149 155 156 154 145 142 139 135 125 125 120 118 114 104 103 110 107 81 56 31 28 14 356 348 345 346
146 143 146 150 157 162 150 151 139 141 142 144 150 158 159 165 160 158 150 152 152 146 139 142 139 136 128 128 129 127 114 112 130 136 101 66 33 20 15 358 340 339 339 344
157 163 166 168 164 157 155 155 155 156 149 147 150 153 151 143 138 139 142 144 149 144 142 148 146 140 134 136 138 125 122 140 150 129 100 59 20 15 358 337 328 335 341 341
140 145 144 137 148 155 160 160 155 159 158 154 149 154 146 142 144 144 143 146 145 145 145 145 148 143 144 145 129 130 142 143 144 139 104 26 7 358 328 318 324 331 334 334